Tracking 19563 objects as of 20-Mar-2019
HD Live streaming from Space Station
objects crossing your sky now

FENGYUN 1C DEB

Track FENGYUN 1C DEB now!
10-day predictions


NORAD ID: 31680
Int'l Code: 1999-025CCN
Perigee: 527.4 km
Apogee: 778.4 km
Inclination: 99.9 °
Period: 97.6 minutes
Semi major axis: 7023 km
RCS: 0.0075 m2 (small)
Launch date: May 10, 1999
Source: People's Republic of China (PRC)
Launch site: Taiyaun Space Center, China (TSC)

Note: This is SATELLITE DEBRIS
aabbcc
Your satellite tracking list
Your tracking list is empty




NASA's NSSDC Master Catalog

Two Line Element Set (TLE):
1 31680U 99025CCN 19077.79129155 +.00000492 +00000-0 +67504-4 0  9997
2 31680 099.8693 292.1946 0178657 330.1079 029.0013 14.74814603636631
Source of the keplerian elements: AFSPC